Idabel, OK

8:06 PM CST on February 21, 2017 (GMT -0600)
Idabel

Weather History for K4O4 - February, 2014

Change the Weather History Date:

Monday, February 17, 2014

  Actual Average (KPRX) Record (KPRX)
Temperature  
Mean Temperature 58 °F -  
Max Temperature 73 °F 57 °F 71 °F (2000)
Min Temperature 42 °F 38 °F 24 °F (2015)
Degree Days  
Heating Degree Days 8    
Growing Degree Days 8 (Base 50)    
Moisture  
Dew Point 39 °F    
Average Humidity 50    
Maximum Humidity 88    
Minimum Humidity 16    
Precipitation  
Precipitation 0.00 in - - ()
Sea Level Pressure  
Sea Level Pressure 30.01 in    
Wind  
Wind Speed 9 mph (NNW)    
Max Wind Speed 21 mph    
Max Gust Speed 31 mph    
Visibility 10 miles    
Events      
Averages and records for this station are not official NWS values.
T = Trace of Precipitation, MM = Missing Value Source: NWS Daily Summary

Daily Weather History Graph

Daily Weather History Graph

Search for Another Location

Airport or City:

Trip Planner

Search our weather history database for the weather conditions in past years. The results will help you decide how hot, cold, wet, or windy it might be!

Date:

Astronomy

Feb. 17, 2014 Rise Set
Actual Time 7:01 AM CST 6:05 PM CST
Civil Twilight 6:36 AM CST 6:30 PM CST
Nautical Twilight 6:07 AM CST 7:00 PM CST
Astronomical Twilight 5:38 AM CST 7:29 PM CST
Moon 8:50 PM CST (2/17) 8:11 AM CST (2/17)
Length of Visible Light 11h 54m
Length of Day
11h 03m
Waning Gibbous, 93% of the Moon is Illuminated
Feb 17
Waning Gibbous
Feb 22
Last Quarter
Mar 1
New
Mar 8
First Quarter
Mar 16
Full

Hourly Weather History & Observations

Time (CST) Temp. Windchill Dew Point Humidity Pressure Visibility Wind Dir Wind Speed Gust Speed Precip Events Conditions
12:15 AM 60.8 °F - 50.0 °F 68% 29.94 in 10.0 mi ESE 8.1 mph - N/A   Mostly Cloudy
12:35 AM 60.8 °F - 50.0 °F 68% 29.93 in 10.0 mi ESE 9.2 mph - N/A   Mostly Cloudy
12:55 AM 60.8 °F - 50.0 °F 68% 29.93 in 10.0 mi SE 10.4 mph - N/A   Mostly Cloudy
1:15 AM 60.8 °F - 51.8 °F 72% 29.93 in 10.0 mi SSE 9.2 mph - N/A   Overcast
1:35 AM 60.8 °F - 51.8 °F 72% 29.93 in 10.0 mi SE 9.2 mph - N/A   Overcast
1:55 AM 60.8 °F - 51.8 °F 72% 29.92 in 10.0 mi SE 9.2 mph - N/A   Overcast
2:15 AM 60.8 °F - 51.8 °F 72% 29.92 in 10.0 mi SSE 9.2 mph - N/A   Mostly Cloudy
2:35 AM 60.8 °F - 53.6 °F 77% 29.91 in 10.0 mi SSE 9.2 mph - N/A   Mostly Cloudy
2:55 AM 60.8 °F - 53.6 °F 77% 29.89 in 10.0 mi SE 10.4 mph - N/A   Mostly Cloudy
3:15 AM 60.8 °F - 53.6 °F 77% 29.89 in 10.0 mi SE 11.5 mph - N/A   Mostly Cloudy
3:35 AM 60.8 °F - 53.6 °F 77% 29.89 in 10.0 mi SSE 9.2 mph - N/A   Overcast
3:55 AM 60.8 °F - 53.6 °F 77% 29.88 in 10.0 mi SSE 8.1 mph - N/A   Overcast
4:15 AM 60.8 °F - 53.6 °F 77% 29.87 in 10.0 mi SSE 11.5 mph - N/A   Overcast
4:35 AM 60.8 °F - 53.6 °F 77% 29.87 in 10.0 mi South 9.2 mph - N/A   Overcast
4:55 AM 60.8 °F - 53.6 °F 77% 29.88 in 10.0 mi South 6.9 mph - N/A   Overcast
5:15 AM 60.8 °F - 53.6 °F 77% 29.89 in 10.0 mi South 5.8 mph - N/A   Overcast
5:35 AM 60.8 °F - 53.6 °F 77% 29.88 in 10.0 mi SSE 9.2 mph - N/A   Overcast
5:55 AM 60.8 °F - 53.6 °F 77% 29.89 in 10.0 mi South 8.1 mph - N/A   Overcast
6:15 AM 60.8 °F - 55.4 °F 82% 29.89 in 10.0 mi South 4.6 mph - N/A   Overcast
6:35 AM 60.8 °F - 53.6 °F 77% 29.89 in 10.0 mi South 6.9 mph - N/A   Overcast
6:55 AM 60.8 °F - 55.4 °F 82% 29.90 in 10.0 mi South 5.8 mph - N/A   Overcast
7:15 AM 59.0 °F - 53.6 °F 82% 29.92 in 10.0 mi Calm Calm - N/A   Overcast
7:35 AM 59.0 °F - 53.6 °F 82% 29.92 in 10.0 mi South 4.6 mph - N/A   Mostly Cloudy
7:55 AM 59.0 °F - 55.4 °F 88% 29.93 in 10.0 mi SW 6.9 mph - N/A   Mostly Cloudy
8:15 AM 60.8 °F - 57.2 °F 88% 29.94 in 7.0 mi WSW 9.2 mph - N/A   Mostly Cloudy
8:35 AM 62.6 °F - 57.2 °F 82% 29.95 in 7.0 mi WSW 10.4 mph - N/A   Scattered Clouds
8:55 AM 64.4 °F - 55.4 °F 73% 29.96 in 10.0 mi West 15.0 mph 20.7 mph N/A   Scattered Clouds
9:15 AM 66.2 °F - 55.4 °F 68% 29.97 in 10.0 mi West 15.0 mph - N/A   Scattered Clouds
9:35 AM 66.2 °F - 53.6 °F 64% 29.98 in 10.0 mi WNW 13.8 mph 19.6 mph N/A   Scattered Clouds
9:55 AM 66.2 °F - 51.8 °F 60% 29.99 in 10.0 mi NW 11.5 mph 17.3 mph N/A   Clear
10:15 AM 66.2 °F - 51.8 °F 60% 29.99 in 10.0 mi NW 10.4 mph - N/A   Clear
10:35 AM 69.8 °F - 44.6 °F 40% 30.00 in 10.0 mi NW 17.3 mph - N/A   Clear
11:15 AM 71.6 °F - 39.2 °F 31% 30.02 in 10.0 mi NNW 19.6 mph 25.3 mph N/A   Clear
11:35 AM 71.6 °F - 35.6 °F 27% 30.02 in 10.0 mi NNW 15.0 mph 24.2 mph N/A   Clear
11:55 AM 73.4 °F - 32.0 °F 22% 30.03 in 10.0 mi NNW 17.3 mph 25.3 mph N/A   Clear
12:15 PM 73.4 °F - 26.6 °F 18% 30.04 in 10.0 mi NW 20.7 mph 28.8 mph N/A   Clear
12:35 PM 71.6 °F - 28.4 °F 20% 30.04 in 10.0 mi North 20.7 mph 27.6 mph N/A   Clear
12:55 PM 71.6 °F - 26.6 °F 19% 30.04 in 10.0 mi North 18.4 mph 31.1 mph N/A   Clear
1:35 PM 71.6 °F - 28.4 °F 20% 30.04 in 10.0 mi NNW 13.8 mph 21.9 mph N/A   Clear
1:55 PM 71.6 °F - 26.6 °F 19% 30.04 in 10.0 mi NW 16.1 mph 25.3 mph N/A   Clear
2:15 PM 71.6 °F - 24.8 °F 17% 30.04 in 10.0 mi NNW 15.0 mph 27.6 mph N/A   Clear
2:35 PM 71.6 °F - 26.6 °F 19% 30.04 in 10.0 mi NNW 11.5 mph - N/A   Clear
2:55 PM 71.6 °F - 26.6 °F 19% 30.04 in 10.0 mi NNW 6.9 mph 10.4 mph N/A   Clear
3:15 PM 71.6 °F - 23.0 °F 16% 30.04 in 10.0 mi North 11.5 mph - N/A   Clear
3:35 PM 71.6 °F - 23.0 °F 16% 30.05 in 10.0 mi NNW 11.5 mph - N/A   Clear
3:55 PM 71.6 °F - 23.0 °F 16% 30.06 in 10.0 mi NNE 9.2 mph - N/A   Clear
4:15 PM 69.8 °F - 23.0 °F 17% 30.06 in 10.0 mi North 5.8 mph - N/A   Clear
4:35 PM 69.8 °F - 21.2 °F 16% 30.06 in 10.0 mi North 8.1 mph - N/A   Clear
4:55 PM 68.0 °F - 21.2 °F 17% 30.07 in 10.0 mi North 5.8 mph - N/A   Clear
5:15 PM 66.2 °F - 24.8 °F 21% 30.07 in 10.0 mi North 4.6 mph - N/A   Clear
5:35 PM 64.4 °F - 24.8 °F 22% 30.09 in 10.0 mi NNW 8.1 mph - N/A   Clear
5:55 PM 62.6 °F - 24.8 °F 24% 30.10 in 10.0 mi NNW 5.8 mph - N/A   Clear
6:15 PM 60.8 °F - 24.8 °F 25% 30.10 in 10.0 mi NNW 5.8 mph - N/A   Clear
6:35 PM 59.0 °F - 23.0 °F 25% 30.11 in 10.0 mi NNW 5.8 mph - N/A   Clear
6:55 PM 55.4 °F - 23.0 °F 29% 30.12 in 10.0 mi NNW 6.9 mph - N/A   Clear
7:15 PM 55.4 °F - 24.8 °F 31% 30.13 in 10.0 mi NNW 6.9 mph - N/A   Clear
7:35 PM 55.4 °F - 26.6 °F 33% 30.13 in 10.0 mi NNW 5.8 mph - N/A   Clear
7:55 PM 53.6 °F - 26.6 °F 35% 30.14 in 10.0 mi NNW 8.1 mph - N/A   Clear
9:15 PM 51.8 °F - 26.6 °F 38% 30.15 in 10.0 mi North 6.9 mph - N/A   Clear
9:35 PM 50.0 °F - 26.6 °F 40% 30.15 in 10.0 mi NNE 8.1 mph - N/A   Clear
9:55 PM 50.0 °F - 26.6 °F 40% 30.15 in 10.0 mi NNE 5.8 mph - N/A   Clear
10:15 PM 50.0 °F - 24.8 °F 37% 30.15 in 10.0 mi NNE 4.6 mph - N/A   Clear
10:35 PM 50.0 °F - 24.8 °F 37% 30.14 in 10.0 mi NNE 3.5 mph - N/A   Clear
11:00 PM 46.4 °F 44.3 °F 24.8 °F 43% 30.14 in 10.0 mi NNE 4.6 mph - N/A   Clear
11:20 PM 44.6 °F 42.2 °F 26.6 °F 49% 30.13 in 10.0 mi NNE 4.6 mph - N/A   Clear
11:39 PM 42.8 °F 40.1 °F 24.8 °F 49% 30.12 in 10.0 mi NNE 4.6 mph - N/A   Clear
11:59 PM 46.4 °F 45.2 °F 26.6 °F 46% 30.11 in 10.0 mi NNE 3.5 mph - N/A   Clear